Location: Moscow
(55.7500°N, 37.5830°E)
Time: 10:55:44
(UTC+03:00)

COSMOS 1579 COOLANT - Visible Passes

Search period start: 01 December 2022 00:00
Search period end: 11 December 2022 00:00
Orbit: 901 x 945 km, 65.0° (Epoch: 29 September)

Date Brightness Start Highest point End Pass type
(mag) Time Alt. Az. Time Alt. Az. Time Alt. Az.
01 Dec ? 04:00:38 32° ESE 04:00:38 32° ESE 04:03:42 10° ESE visible
01 Dec ? 05:44:12 39° WSW 05:44:12 39° WSW 05:49:37 10° S visible
02 Dec ? 04:10:32 29° SE 04:10:32 29° SE 04:13:19 10° SE visible
02 Dec ? 05:54:06 29° SW 05:54:06 29° SW 05:58:26 10° S visible
03 Dec ? 04:20:30 24° SE 04:20:30 24° SE 04:22:47 10° SE visible
03 Dec ? 06:04:04 20° SW 06:04:04 20° SW 06:06:58 10° SSW visible
04 Dec ? 04:30:33 19° SSE 04:30:33 19° SSE 04:32:06 10° SSE visible
04 Dec ? 06:14:07 12° SW 06:14:07 12° SW 06:15:02 10° SW visible
05 Dec ? 04:40:40 13° SSE 04:40:40 13° SSE 04:41:15 10° SSE visible
05 Dec ? 19:43:51 10° S 19:44:54 15° S 19:44:54 15° S visible
06 Dec ? 18:10:49 10° SE 18:11:22 11° SE 18:11:22 11° SE visible
06 Dec ? 19:52:55 10° SSW 19:54:56 22° SSW 19:54:56 22° SSW visible
07 Dec ? 18:18:30 10° SSE 18:21:19 18° SE 18:21:19 18° SE visible
07 Dec ? 20:02:09 10° SSW 20:04:53 28° SSW 20:04:53 28° SSW visible
08 Dec ? 18:26:50 10° SSE 18:31:12 25° ESE 18:31:12 25° ESE visible
08 Dec ? 20:11:32 10° SW 20:14:45 33° SW 20:14:45 33° SW visible
09 Dec ? 18:35:32 10° S 18:40:53 34° ESE 18:40:59 34° ESE visible
09 Dec ? 20:21:04 10° SW 20:24:33 36° WSW 20:24:33 36° WSW visible
10 Dec ? 17:03:49 10° ESE 17:05:00 11° ESE 17:06:11 10° E visible
10 Dec ? 18:44:28 10° SSW 18:50:11 46° ESE 18:50:43 45° ESE visible
10 Dec ? 20:30:44 10° WSW 20:34:15 35° W 20:34:15 35° W visible
